User: anonymous   Login
Location: Medlow Airstrip Trail, Medlow Bath NSW 2780, Australia
(33.6682°S, 150.3233°E)
Time: 14:49:13
(UTC+10:00)
Language:

Vanguard 1 Rocket - Orbit

View from above orbital plane
View from above orbital plane
View from above satellite
View from above satellite

Ground track
Ground track

The orbit data is extracted from the following two-line orbital elements,

1    16U 58002A   19263.15435105 -.00000080 +00000-0 -11811-3 0  9992
2    16 034.2613 217.9934 2026508 173.8942 189.0880 10.48742137430356
Epoch (UTC): 20 September 2019 03:42:15
Eccentricity: 0.2026508
inclination: 34.2613°
perigee height: 651 km
apogee height: 4225 km
right ascension of ascending node: 217.9934°
argument of perigee: 173.8942°
revolutions per day: 10.48742137
mean anomaly at epoch: 189.0880°
orbit number at epoch: 43035

The dashed part of the orbit path shows where the satellite is in the earth's shadow,  

DLR